Tracking 31027 objects as of 19-Jul-2025
HD Live streaming from Space Station
objects crossing your sky now

STARLINK-4349

Track STARLINK-4349 now!
10-day predictions
STARLINK-4349 is classified as:


NORAD ID: 53044
Int'l Code: 2022-077B
Perigee: 569.5 km
Apogee: 570.8 km
Inclination: 97.7 °
Period: 95.9 minutes
Semi major axis: 6941 km
RCS: Unknown
Launch date: July 11, 2022
Source: United States (US)
Launch site: AIR FORCE WESTERN TEST RANGE (AFWTR)
Your satellite tracking list
KL-BETA B
Track 1 satellite(s)




NASA's NSSDC Master Catalog

Two Line Element Set (TLE):
1 53044U 22077B   25199.48934854  .00002746  00000-0  21832-3 0  9993
2 53044  97.6559  20.6454 0000951  86.8196 273.3137 15.01250452165781
Source of the keplerian elements: AFSPC